{"data":{"norad_id":41725,"epoch":"2026-09-19T22:35:04.024320Z","epoch_age_seconds":73991,"freshness":"FRESH","line1":"1 41725U 16048A   26262.94101880 -.00000319  00000+0  00000+0 0  9999","line2":"2 41725   4.0316  44.0212 0002277  84.4672 310.5483  1.00270888 37229","mean_motion":1.00270888,"eccentricity":0.0002277,"inclination_deg":4.0316,"raan_deg":44.0212,"arg_perigee_deg":84.4672,"mean_anomaly_deg":310.5483,"bstar":0,"rev_number":3722,"period_min":1436.1097510177,"perigee_km":35777.245458002,"apogee_km":35796.447391453,"semimajor_km":42164.983424727,"source":"CELESTRAK","updated_at":"2026-09-20T09:00:35.226511Z"}}